Location: Caltech
(34.1382°N, 118.1253°W)
Time: 21:19:02
(UTC-07:00)

Iridium 95 - Visible Passes

Search period start: 30 August 2016 00:00
Search period end: 09 September 2016 00:00
Orbit: 776 x 779 km, 86.4° (Epoch: 29 August)

Date Brightness Start Highest point End Pass type
(mag) Time Alt. Az. Time Alt. Az. Time Alt. Az.
30 Aug 8.4 04:23:30 10° ESE 04:26:19 15° E 04:29:08 10° NE visible
31 Aug 5.6 05:27:46 10° S 05:32:58 83° E 05:38:12 10° N visible
01 Sep 6.8 04:54:40 10° SSE 04:59:33 42° E 05:04:27 10° NNE visible
02 Sep 7.9 04:22:19 10° SE 04:26:15 22° E 04:30:11 10° NNE visible
02 Sep 6.2 06:02:01 10° SSW 06:06:41 33° W 06:11:23 10° NNW visible
03 Sep 8.6 03:51:39 10° E 03:53:03 11° ENE 03:54:28 10° ENE visible
03 Sep 5.5 05:27:55 10° S 05:33:05 66° W 05:38:16 10° N visible
04 Sep 5.9 04:54:27 10° S 04:59:35 64° E 05:04:45 10° N visible
05 Sep 7.2 04:21:37 10° SSE 04:26:13 32° E 04:30:49 10° NNE visible
06 Sep 8.1 03:49:41 10° ESE 03:52:57 17° E 03:56:13 10° NE visible
06 Sep 5.9 05:28:18 10° SSW 05:33:14 43° W 05:38:12 10° NNW visible
07 Sep 5.4 04:54:28 10° S 04:59:40 86° W 05:04:55 10° N visible
08 Sep 6.4 04:21:52 13° SSE 04:26:13 49° E 04:31:14 10° NNE visible
08 Sep 7.1 06:04:11 10° WSW 06:07:11 15° WNW 06:10:12 10° NW visible
